This is the latest recevied weather packets stored in our database for station/object KE0PRS. If no packets are shown the sender has not sent any weather packets the latest 10 day(s).
| Time | Temp. | Humidity | Pressure | Rain* | Wind** | Luminosity | Snow |
|---|---|---|---|---|---|---|---|
| 1777508150 | 16.67° C | 35% | 1018 hPa | 0 mm | - | 81 W/m² | - |
| 1777507846 | 17.22° C | 34% | 1018 hPa | 0 mm | - | 88 W/m² | - |
| 1777507544 | 17.22° C | 35% | 1018.2 hPa | 0 mm | - | 98 W/m² | - |
| 1777507240 | 17.22° C | 35% | 1018.1 hPa | 0 mm | - | 110 W/m² | - |
| 1777506938 | 17.78° C | 34% | 1018.2 hPa | 0 mm | - | 129 W/m² | - |
| 1777506635 | 17.22° C | 35% | 1018.2 hPa | 0 mm | - | 156 W/m² | - |
| 1777506331 | 17.22° C | 34% | 1018.2 hPa | 0 mm | - | 195 W/m² | - |
| 1777506027 | 16.67° C | 36% | 1018.2 hPa | 0 mm | - | 197 W/m² | - |
| 1777505723 | 16.67° C | 36% | 1018.3 hPa | 0 mm | - | 72 W/m² | - |
| 1777505421 | 17.22° C | 35% | 1018 hPa | 0 mm | - | 90 W/m² | - |
| 1777505117 | 17.22° C | 36% | 1018.1 hPa | 0 mm | - | 200 W/m² | - |
| 1777504814 | 17.22° C | 36% | 1018.2 hPa | 0 mm | - | 242 W/m² | - |
| 1777504511 | 16.67° C | 38% | 1018.1 hPa | 0 mm | - | 269 W/m² | - |
| 1777504206 | 16.67° C | 37% | 1018.2 hPa | 0 mm | - | 174 W/m² | - |
| 1777503902 | 16.67° C | 37% | 1018.2 hPa | 0 mm | - | 159 W/m² | - |
| 1777503598 | 17.22° C | 37% | 1018.2 hPa | 0 mm | - | 131 W/m² | - |
| 1777503296 | 17.78° C | 35% | 1018.1 hPa | 0 mm | - | 153 W/m² | - |
| 1777502991 | 17.78° C | 35% | 1018.1 hPa | 0 mm | - | 320 W/m² | - |
| 1777502690 | 17.78° C | 35% | 1018.3 hPa | 0 mm | - | 274 W/m² | - |
| 1777502386 | 17.22° C | 36% | 1018.2 hPa | 0 mm | - | 263 W/m² | - |
| 1777502083 | 17.22° C | 36% | 1018.1 hPa | 0 mm | - | 201 W/m² | - |
| 1777501780 | 17.22° C | 35% | 1018.1 hPa | 0 mm | - | 216 W/m² | - |
| 1777501477 | 17.78° C | 35% | 1018 hPa | 0 mm | - | 188 W/m² | - |
| 1777501174 | 17.78° C | 34% | 1018.1 hPa | 0 mm | - | 206 W/m² | - |
| 1777500872 | 17.22° C | 36% | 1018.1 hPa | 0 mm | - | 398 W/m² | - |
* Rain latest hour (hover to see other rain measurements)
** Current wind speed in m/s (hover to see current wind gust speed)